sat.trackr.live / text

‹ back to catalog

STARLINK-6036

NORAD 56800 · 2023-078AK

PAYLOAD ACTIVE UNKNOWN

§ Identity

Operator
Country
US
Launch date
2023-05-31
Launch site
AFWTR
Launch vehicle
Mass (kg)
RCS (m²)

Purposes: comms

External: N2YO · Heavens-Above · Gunter

§ Orbital elements

Epoch: 2026-05-25T03:51:47.438208Z

Period
96.11 min
Inclination
69.9983°
Eccentricity
0.0003489
Mean motion
14.98330608 rev/d
Perigee alt
569.6 km
Apogee alt
574.5 km
Semi-major
6,950.2 km
B*
3.5495e-5
RAAN
151.6940°
Arg perigee
267.7903°
Mean anomaly
92.2857°
Rev number
16,413

§ Raw data

STARLINK-60361 56800U 23078AK  26145.16096572  .00000330  00000+0  35495-4 0  99982 56800  69.9983 151.6940 0003489 267.7903  92.2857 14.98330608164139

JSON: /api/v1/satellites/56800 · /tle

For live sub-satellite position, see the globe view (requires WebGL).

§ Visibility from observer

Set your observer location to see the next 7 days of passes ≥ 10°. The values pass through the URL so the page stays shareable.

No JS? Fill the form by hand. The geolocation button needs JavaScript.